Theta_e
351 353 356 359 357 350 352 354 354 357 353 351 351 351 348 349 349 349 351 355 354 354 356 359 360 360 360 362 362 363 364 363 363 362 360 360 360 357 355 355 354 358 357
361 353 356 353 353 360 353 357 356 356 352 350 348 349 350 348 351 350 350 351 358 357 357 358 360 361 362 363 363 364 366 366 363 362 361 361 360 359 358 354 353 356 357
360 360 353 364 354 356 358 360 358 356 352 347 347 347 349 351 351 354 352 351 355 360 360 361 362 363 361 362 362 363 363 365 361 362 361 363 361 360 359 358 354 355 356
362 362 353 360 354 358 354 352 351 350 347 346 345 347 347 349 350 350 351 355 354 354 360 363 364 364 362 360 360 362 363 362 361 361 362 362 361 360 360 357 355 355 356
359 362 352 358 362 355 353 351 351 352 347 346 343 343 345 345 350 349 352 355 357 356 358 362 364 362 359 360 360 361 362 360 360 360 363 362 360 359 355 357 357 356 356
358 360 355 365 361 352 353 358 361 356 355 350 347 345 346 348 350 350 351 352 354 357 356 358 358 358 360 359 356 356 356 356 356 360 362 354 353 355 358 358 357 356 355
358 360 355 360 358 356 360 358 356 358 350 353 348 346 346 347 348 350 351 351 352 354 355 356 358 356 359 358 357 354 352 354 355 362 357 352 354 357 358 358 356 355 355
359 358 365 355 358 354 360 358 360 354 349 353 346 342 338 337 336 350 349 350 352 352 354 356 360 360 361 359 361 358 354 355 357 361 354 354 356 357 358 358 358 357 356
358 360 362 361 363 360 350 359 357 359 348 351 359 347 337 335 340 353 351 349 352 351 351 351 356 358 362 361 361 358 355 355 357 358 354 355 355 357 358 358 358 357 357
359 358 361 361 363 360 365 358 356 359 359 350 350 350 356 351 338 336 346 348 351 349 353 349 356 357 360 360 360 359 358 356 358 353 354 355 355 356 356 356 356 356 356
359 357 359 362 361 359 365 364 361 363 357 352 348 347 353 349 352 345 337 346 346 346 345 349 350 361 359 359 360 355 358 354 352 351 351 352 353 353 354 354 354 354 354
355 360 359 361 363 363 362 360 364 362 362 361 356 354 347 346 344 346 342 342 339 344 347 348 349 350 360 356 359 360 356 357 354 351 349 350 350 351 351 351 351 351 352
353 362 367 367 359 365 363 363 364 365 363 360 362 353 353 349 349 347 343 340 339 343 350 349 349 355 357 362 358 359 357 353 352 349 347 346 346 346 346 347 347 347 348
351 357 362 361 361 362 362 363 359 358 363 357 360 363 355 351 348 348 345 344 339 341 351 357 357 359 361 360 359 359 352 349 348 345 343 341 342 342 343 343 342 343 343
355 353 359 360 359 362 361 367 357 362 362 360 360 364 359 353 349 348 349 349 347 337 343 351 354 360 357 359 359 359 360 344 344 341 339 338 339 339 339 339 338 338 339
362 361 361 358 359 362 365 367 360 364 365 357 354 364 365 353 352 350 349 350 348 353 344 346 360 356 362 357 356 360 357 346 341 338 336 335 335 336 336 336 335 334 334
362 362 364 361 361 361 364 365 363 363 359 362 361 362 363 365 355 353 351 356 352 356 351 349 356 362 362 361 361 364 360 358 341 336 334 332 331 332 332 331 330 330 330
364 367 365 363 361 361 363 363 359 359 360 357 359 361 359 357 363 363 357 364 359 364 359 353 362 354 361 362 364 361 357 354 345 334 331 328 328 327 326 325 324 325 324
366 360 364 366 362 362 364 364 363 362 359 360 359 360 359 362 363 358 360 363 364 360 360 352 350 360 361 362 361 361 359 364 354 333 329 327 326 324 322 321 321 319 318
367 366 364 365 364 363 362 362 362 363 361 359 365 360 359 362 363 364 363 364 362 360 359 351 350 350 353 359 355 353 354 361 357 354 339 336 329 325 323 321 320 318 317
363 364 367 364 364 360 356 363 364 358 362 360 363 361 364 362 345 350 363 357 360 355 357 349 352 348 354 351 349 356 350 357 356 358 356 339 328 330 326 325 322 319 316
364 366 365 363 363 356 344 342 355 359 363 362 361 362 361 349 346 340 339 334 346 356 353 348 353 348 350 352 350 343 344 345 341 334 345 339 341 335 331 324 319 318 315
363 363 363 363 363 363 341 336 342 353 355 361 363 361 357 359 354 350 332 331 331 331 334 347 348 347 345 339 342 340 336 336 332 328 334 334 335 330 328 316 318 317 315
362 362 361 363 363 363 338 333 338 358 358 360 360 361 363 358 355 356 348 348 348 347 340 342 343 337 339 340 339 338 337 338 336 326 329 327 334 333 333 323 318 316 314
359 359 362 362 362 363 333 329 338 356 356 359 358 358 359 357 331 329 352 350 344 339 324 323 321 319 318 319 324 331 323 324 320 327 327 326 331 327 332 331 320 316 315
349 352 359 361 352 361 333 325 337 355 354 353 357 354 327 348 320 324 350 349 342 338 336 334 331 328 326 323 323 328 324 325 328 329 326 322 322 323 320 332 329 319 318
Wind_Speed
5 3 1 1 4 3 5 4 2 1 4 5 1 1 3 5 4 2 8 13 10 8 8 9 9 10 11 12 14 15 15 14 13 12 11 10 11 8 6 3 5 6 5
5 6 7 6 4 2 3 2 4 3 4 2 6 3 3 5 2 3 5 9 14 12 12 11 12 12 12 13 13 13 13 12 11 12 12 11 9 7 6 2 3 4 4
2 2 2 2 4 4 2 5 5 6 8 2 3 4 4 2 6 1 4 1 10 16 15 15 13 12 13 13 13 12 11 9 10 11 11 11 7 6 6 5 3 3 3
5 7 7 2 5 4 3 1 2 4 2 2 2 2 3 2 3 4 5 3 4 3 14 14 13 12 13 13 12 11 10 7 8 11 9 9 6 4 6 6 3 2 2
7 9 3 6 5 3 2 8 2 4 5 2 6 5 4 4 6 7 0 4 7 4 6 13 12 13 10 9 8 9 10 9 8 10 9 6 5 5 4 5 4 2 2
7 6 2 1 6 4 2 7 7 6 7 5 10 4 3 3 3 4 5 7 4 1 7 2 5 5 13 8 7 7 8 8 7 9 7 5 4 4 4 2 1 2 2
7 6 6 7 5 4 6 2 6 6 6 3 8 6 7 9 7 8 5 3 4 4 3 2 3 4 5 9 9 5 5 4 5 8 4 2 2 4 4 3 1 1 2
7 8 7 3 3 2 4 2 3 8 5 2 7 8 6 8 15 11 4 2 6 5 1 5 1 3 4 3 8 7 4 3 4 6 3 2 1 1 4 5 5 4 2
8 8 6 7 1 5 5 4 5 4 8 2 1 4 9 4 10 3 7 4 2 4 5 9 6 3 2 4 7 8 5 3 3 3 2 2 1 2 4 5 7 7 7
9 8 8 7 6 7 3 3 5 5 3 8 3 4 2 4 7 6 2 4 6 2 4 4 3 8 4 5 5 8 7 2 1 1 0 0 2 4 5 5 6 7 7
8 8 8 7 6 7 4 5 4 4 4 6 7 5 2 5 7 5 6 4 4 4 5 5 3 2 6 2 5 6 5 3 0 1 1 2 3 4 5 6 6 6 6
10 9 8 7 7 7 5 5 6 5 6 5 7 4 7 6 1 3 7 7 7 5 3 4 3 4 4 3 9 10 5 3 1 2 3 4 4 5 6 7 8 8 8
4 11 9 8 8 8 8 6 5 7 5 5 4 7 7 4 6 5 6 8 7 7 1 2 3 6 5 2 8 5 7 4 4 4 5 5 5 5 6 7 9 9 10
1 5 11 8 10 8 7 6 6 7 8 7 7 7 8 9 7 6 5 6 8 8 8 7 9 5 4 2 7 5 7 7 8 6 6 5 5 5 6 7 7 8 9
5 5 5 7 10 10 9 8 10 9 6 7 9 8 8 9 8 7 5 5 4 9 3 4 2 4 3 3 5 5 5 12 9 7 6 5 5 5 6 6 7 8 10
8 7 5 9 9 10 10 8 8 9 8 7 9 8 7 8 8 7 8 4 6 3 3 4 2 1 4 6 5 5 8 11 10 9 8 5 5 7 7 9 10 11 13
10 9 8 9 9 10 10 8 8 10 4 8 9 9 8 5 8 10 8 4 4 3 4 9 3 3 3 3 5 6 4 7 8 9 12 8 7 8 8 9 10 11 12
12 11 11 10 11 11 9 9 11 11 10 11 10 9 10 8 9 8 9 10 7 3 4 7 7 8 2 1 4 4 6 6 8 9 13 9 8 9 9 10 10 11 11
12 14 12 12 12 12 11 11 10 11 11 10 10 10 10 10 9 8 8 6 5 4 4 4 6 1 2 3 3 4 3 3 6 13 12 10 11 11 10 10 10 9 9
11 13 13 12 13 13 12 12 12 11 12 12 10 8 9 10 11 7 7 6 6 4 4 4 8 4 3 4 5 4 3 1 3 3 6 7 11 11 11 11 10 9 9
12 13 12 13 12 13 12 13 13 9 11 12 10 9 10 9 1 1 4 5 3 4 4 6 3 4 4 4 4 3 3 2 3 2 3 4 7 6 7 6 12 10 9
14 14 15 15 14 13 12 13 13 12 13 12 9 9 9 6 4 7 7 8 5 4 6 5 3 4 3 3 3 5 5 1 2 6 5 5 4 5 6 6 10 10 9
14 14 15 14 14 15 13 11 14 15 12 11 9 9 8 4 8 7 7 7 6 5 4 3 4 4 3 6 5 4 5 3 4 4 3 2 3 3 2 7 9 8 7
14 14 16 17 16 13 13 15 16 14 13 12 9 10 9 9 7 7 9 10 7 7 7 4 7 6 6 4 4 5 3 3 4 3 2 1 2 2 3 7 7 9 7
13 14 13 16 16 15 14 16 14 15 14 12 10 12 11 11 6 3 8 6 7 9 9 12 13 11 8 7 4 2 3 3 1 1 3 5 2 3 5 6 8 10 9
15 13 15 16 17 16 11 15 16 12 14 10 9 8 6 11 8 4 7 9 9 7 7 8 8 6 4 4 6 3 2 4 3 5 5 5 4 4 3 6 10 8 8
Wind_Direction
104 153 210 139 331 191 151 217 125 88 140 196 337 31 267 61 41 73 122 156 170 198 228 242 254 253 252 258 269 275 283 290 300 300 309 305 289 276 264 268 282 280 265
212 146 201 173 184 335 94 74 35 326 276 153 137 344 255 116 50 338 110 163 180 197 221 237 249 256 261 268 275 286 298 310 315 310 303 298 297 281 290 291 259 281 269
239 275 90 275 88 78 220 223 227 194 244 209 118 159 179 47 142 169 257 137 173 200 208 222 232 248 263 273 281 288 295 303 310 312 302 301 306 286 289 302 294 295 246
181 250 209 98 91 246 217 17 326 328 68 220 67 233 128 206 166 219 247 291 309 304 207 212 221 234 255 268 273 274 283 296 303 322 310 312 296 287 294 302 288 293 278
186 277 265 88 237 240 321 60 251 312 133 225 193 188 217 245 180 224 63 259 256 249 343 175 205 222 230 255 261 271 285 298 305 318 312 332 311 299 294 296 284 229 215
186 246 167 118 271 217 190 25 354 5 314 3 309 91 289 274 229 249 255 241 236 234 263 30 231 255 203 215 236 258 282 291 301 314 331 328 321 310 316 317 238 189 199
188 217 262 168 262 313 25 340 266 209 296 86 289 250 200 201 225 225 241 348 46 265 11 340 278 336 163 201 203 222 281 274 296 311 331 317 300 309 330 2 40 149 218
187 214 270 226 198 299 172 248 292 310 253 103 312 336 281 50 318 296 35 305 40 288 250 111 30 285 293 321 121 181 202 223 276 302 322 308 266 349 1 11 14 10 327
203 227 202 270 134 273 232 188 219 275 300 3 107 315 322 89 230 232 177 151 232 314 41 314 145 97 299 279 174 152 188 199 261 294 320 284 354 54 66 32 14 11 1
216 217 222 218 237 277 338 253 229 281 271 291 194 193 16 345 328 308 347 102 238 254 109 333 61 138 139 272 149 118 153 150 306 332 219 359 37 12 20 41 31 7 354
221 217 209 217 223 238 211 285 297 231 262 277 307 312 278 264 210 263 320 297 340 6 322 338 41 24 117 99 42 102 109 107 331 328 19 30 41 21 10 14 24 21 4
181 221 209 211 218 237 251 237 237 225 263 322 317 321 283 309 216 207 247 334 314 296 20 301 328 8 22 56 91 119 128 149 359 32 13 26 45 31 21 11 12 13 13
242 167 200 197 215 214 261 228 207 267 223 256 252 292 301 281 284 304 305 301 321 313 307 116 25 38 12 338 107 63 102 105 77 62 78 66 57 52 37 31 32 24 20
176 150 193 204 216 241 201 222 243 238 214 224 229 262 301 307 298 283 276 309 305 297 37 339 49 34 356 50 89 159 123 105 76 69 71 76 82 78 75 69 57 50 44
240 145 253 189 220 208 226 196 228 220 244 214 242 224 233 265 273 282 281 267 337 301 1 240 58 19 259 86 188 0 134 104 106 98 79 70 76 80 88 85 67 53 44
218 267 241 221 222 226 214 223 241 238 233 240 242 234 244 275 287 269 252 279 280 0 315 311 314 311 328 351 71 318 108 142 133 120 98 76 74 76 78 75 69 61 52
233 230 225 246 230 228 221 214 263 284 270 266 272 287 280 277 281 281 288 322 299 33 294 286 221 117 350 331 327 333 253 168 123 123 105 95 91 90 87 83 78 74 69
216 217 205 221 239 237 229 223 228 252 231 233 234 260 262 261 256 265 294 318 315 337 268 278 298 285 134 333 273 291 293 73 121 124 109 111 106 100 98 94 87 81 80
233 226 215 204 222 235 224 230 232 241 251 254 229 231 237 262 259 248 245 260 269 246 263 255 276 222 216 75 1 267 352 325 72 126 117 128 124 119 113 104 98 94 91
224 240 235 222 213 223 225 227 222 233 244 248 254 256 257 264 265 249 260 260 260 275 262 249 262 8 5 10 337 322 319 59 134 125 119 144 145 133 123 118 108 105 104
221 223 234 242 228 227 227 213 232 215 223 235 254 234 244 264 97 166 217 227 263 251 268 266 291 336 290 331 327 305 293 91 72 68 125 162 150 161 144 124 103 91 88
227 221 222 222 224 238 232 210 222 225 226 233 231 256 241 158 136 107 110 76 43 255 268 315 311 300 337 285 258 344 350 70 153 29 3 48 20 87 40 79 88 104 108
234 228 232 231 226 224 237 195 198 228 244 229 208 235 238 215 161 154 116 114 91 89 61 329 329 25 348 29 346 353 29 34 59 30 346 82 5 101 56 118 119 118 113
238 234 234 230 226 221 215 192 192 217 227 244 223 225 231 206 194 180 174 189 158 80 24 20 72 79 71 53 31 58 50 85 107 70 21 34 227 220 111 114 130 128 131
245 240 238 235 232 234 207 193 187 218 223 220 218 223 206 199 139 231 205 173 137 125 89 78 87 84 66 43 30 38 52 55 358 251 231 285 143 294 157 152 146 164 171
268 261 238 230 228 228 208 200 191 221 214 202 181 166 22 175 149 228 205 171 165 137 131 127 113 101 79 54 47 70 173 253 276 164 55 323 353 356 303 172 152 175 177